period_start,C,m1,H,J0,J1,J2,J3,J4,J5,JA,JB,JC,JD,JJ,JK,JN,#
2014-02-27 00:00:17,0.32,6.72,0.00,16.25,21.79,24.90,6.20,31.13,1027.36,2058.01,1675.02,1941.95,2109.08,349.86,335.19,12.22,0000 0000 0000 0000 000000
2014-02-27 00:01:18,0.22,6.72,0.00,16.25,21.79,24.92,6.37,31.13,1027.36,2058.02,1674.51,1941.47,2108.76,350.34,335.32,12.22,0000 0000 0000 0000 000000
2014-02-27 00:02:18,0.54,6.72,0.00,16.26,21.79,24.92,6.16,31.04,1027.36,2058.01,1674.18,1941.18,2108.31,349.49,334.34,12.23,0000 0000 0000 0000 000000
2014-02-27 00:03:18,0.38,6.72,0.00,16.27,21.79,24.91,6.20,31.00,1027.36,2058.01,1674.02,1941.06,2108.11,349.66,334.46,12.23,0000 0000 0000 0000 000000
2014-02-27 00:04:18,0.20,6.73,0.00,16.27,21.79,24.92,6.16,31.00,1027.36,2058.04,1673.56,1940.80,2107.88,349.85,334.95,12.24,0000 0000 0000 0000 000000
2014-02-27 00:05:18,0.42,6.73,0.00,16.27,21.79,24.93,6.21,30.92,1027.36,2058.04,1673.21,1940.33,2107.39,350.31,335.45,12.25,0000 0000 0000 0000 000000
2014-02-27 00:06:19,0.51,6.73,0.00,16.27,21.79,24.90,6.22,31.21,1027.36,2058.02,1672.98,1940.12,2107.14,350.32,335.21,12.25,0000 0000 0000 0000 000000
2014-02-27 00:07:19,0.23,6.73,0.00,16.27,21.79,24.96,6.32,31.13,1027.36,2058.01,1672.54,1939.98,2106.99,350.61,335.66,12.26,0000 0000 0000 0000 000000
2014-02-27 00:08:19,0.33,6.73,0.00,16.27,21.79,24.94,6.30,31.04,1027.36,2058.00,1672.19,1939.54,2106.59,350.11,335.04,12.26,0000 0000 0000 0000 000000
2014-02-27 00:09:20,0.46,6.74,0.00,16.27,21.79,24.92,6.08,31.08,1027.36,2058.03,1671.85,1939.19,2106.23,348.83,333.66,12.27,0000 0000 0000 0000 000000
2014-02-27 00:10:20,0.39,6.74,0.00,16.27,21.80,24.89,6.20,31.04,1027.36,2058.01,1671.34,1939.03,2106.05,350.30,335.31,12.28,0000 0000 0000 0000 000000
2014-02-27 00:11:20,0.35,6.74,0.00,16.29,21.80,24.93,6.36,31.25,1027.36,2058.00,1671.12,1938.70,2105.65,350.16,335.05,12.28,0000 0000 0000 0000 000000
2014-02-27 00:12:20,0.35,6.74,0.00,16.28,21.80,24.89,6.34,31.17,1027.36,2058.01,1670.88,1938.30,2105.25,349.63,334.63,12.29,0000 0000 0000 0000 000000
2014-02-27 00:13:21,0.42,6.75,0.00,16.29,21.80,24.95,6.24,31.42,1027.36,2058.01,1670.37,1938.10,2105.08,349.61,334.61,12.29,0000 0000 0000 0000 000000
2014-02-27 00:14:21,0.36,6.75,0.00,16.29,21.80,24.94,6.44,31.25,1027.36,2058.00,1670.13,1937.95,2104.84,351.12,336.16,12.30,0000 0000 0000 0000 000000
2014-02-27 00:15:21,0.26,6.75,0.00,16.29,21.81,24.97,6.13,30.92,1027.36,2058.00,1669.77,1937.46,2104.36,349.62,334.25,12.31,0000 0000 0000 0000 000000
2014-02-27 00:16:21,0.50,6.75,0.00,16.29,21.82,24.95,6.12,31.08,1027.35,2058.00,1669.30,1937.19,2104.13,350.57,335.18,12.31,0000 0000 0000 0000 000000
2014-02-27 00:17:22,0.39,6.76,0.00,16.29,21.82,24.97,6.10,31.17,1027.36,2058.01,1669.10,1937.05,2103.92,349.67,334.35,12.32,0000 0000 0000 0000 000000
2014-02-27 00:18:22,0.24,6.76,0.00,16.27,21.82,24.95,6.22,31.08,1027.36,2058.01,1668.69,1936.72,2103.42,349.94,335.17,12.32,0000 0000 0000 0000 000000
2014-02-27 00:19:22,0.46,6.76,0.00,16.29,21.82,24.96,6.23,31.13,1027.36,2058.01,1668.26,1936.28,2103.15,349.41,334.42,12.33,0000 0000 0000 0000 000000
2014-02-27 00:20:23,0.46,6.76,0.00,16.28,21.82,24.94,6.07,31.04,1027.35,2058.01,1668.08,1936.10,2102.94,349.69,334.64,12.33,0000 0000 0000 0000 000000
2014-02-27 00:21:23,0.23,6.76,0.00,16.29,21.82,24.91,6.44,31.25,1027.36,2058.00,1667.70,1935.96,2102.42,351.14,335.74,12.34,0000 0000 0000 0000 000000
2014-02-27 00:22:23,0.37,6.77,0.00,16.30,21.82,24.98,6.22,31.33,1027.36,2058.00,1667.27,1935.51,2102.15,349.69,334.45,12.35,0000 0000 0000 0000 000000
2014-02-27 00:23:23,0.47,6.77,0.00,16.29,21.82,24.98,6.21,31.21,1027.36,2058.00,1667.08,1935.19,2102.01,350.37,335.32,12.35,0000 0000 0000 0000 000000
2014-02-27 00:24:24,0.28,6.77,0.00,16.29,21.82,24.96,6.34,31.17,1027.36,2058.00,1666.76,1935.06,2101.61,349.82,334.53,12.36,0000 0000 0000 0000 000000
2014-02-27 00:25:24,0.29,6.77,0.00,16.31,21.83,24.92,6.30,31.13,1027.35,2058.00,1666.28,1934.74,2101.25,349.58,334.54,12.36,0000 0000 0000 0000 000000
2014-02-27 00:26:24,0.45,6.77,0.00,16.32,21.83,24.94,6.24,31.33,1027.34,2058.00,1666.08,1934.30,2101.07,348.89,333.67,12.37,0000 0000 0000 0000 000000
2014-02-27 00:27:24,0.38,6.78,0.00,16.32,21.84,24.92,6.38,31.08,1027.35,2058.00,1665.69,1934.10,2100.72,350.34,335.26,12.38,0000 0000 0000 0000 000000
2014-02-27 00:28:25,0.33,6.78,0.00,16.32,21.84,24.94,6.22,31.17,1027.33,2058.00,1665.26,1933.97,2100.29,349.55,334.51,12.38,0000 0000 0000 0000 000000
2014-02-27 00:29:25,0.39,6.78,0.00,16.32,21.84,24.96,6.22,31.38,1027.31,2058.00,1665.08,1933.53,2100.10,349.34,334.30,12.39,0000 0000 0000 0000 000000
2014-02-27 00:30:25,0.33,6.78,0.00,16.32,21.84,24.94,6.31,31.29,1027.31,2058.00,1664.74,1933.19,2099.82,350.89,335.78,12.39,0000 0000 0000 0000 000000
2014-02-27 00:31:26,0.35,6.78,0.00,16.33,21.84,24.97,6.27,31.29,1027.30,2058.00,1664.28,1933.05,2099.34,350.23,335.13,12.40,0000 0000 0000 0000 000000
2014-02-27 00:32:26,0.44,6.79,0.00,16.35,21.84,24.97,6.22,31.13,1027.32,2057.99,1664.10,1932.75,2099.11,350.63,335.50,12.40,0000 0000 0000 0000 000000
2014-02-27 00:33:26,0.26,6.79,0.00,16.34,21.85,24.93,6.16,31.04,1027.33,2057.99,1663.86,1932.30,2098.84,349.25,334.11,12.41,0000 0000 0000 0000 000000
2014-02-27 00:34:26,0.35,6.79,0.00,16.34,21.85,24.97,6.40,31.08,1027.34,2058.00,1663.39,1932.11,2098.35,350.82,335.70,12.42,0000 0000 0000 0000 000000
2014-02-27 00:35:27,0.48,6.79,0.00,16.34,21.85,24.97,6.39,31.25,1027.35,2058.00,1663.15,1931.97,2098.13,350.46,335.35,12.42,0000 0000 0000 0000 000000
2014-02-27 00:36:27,0.24,6.80,0.00,16.34,21.86,24.98,6.38,31.00,1027.36,2058.00,1663.03,1931.58,2097.97,351.03,335.39,12.43,0000 0000 0000 0000 000000
2014-02-27 00:37:27,0.31,6.80,0.00,16.34,21.87,24.98,6.32,31.04,1027.34,2058.00,1662.69,1931.22,2097.46,350.18,335.09,12.43,0000 0000 0000 0000 000000
2014-02-27 00:38:27,0.42,6.80,0.00,16.34,21.87,24.96,6.14,31.04,1027.35,2058.00,1662.28,1931.07,2097.17,349.97,334.89,12.44,0000 0000 0000 0000 000000
2014-02-27 00:39:27,0.34,6.80,0.00,16.35,21.87,24.94,6.24,31.08,1027.35,2058.00,1662.10,1930.82,2096.99,349.89,334.51,12.45,0000 0000 0000 0000 000000
2014-02-27 00:40:28,0.29,6.80,0.00,16.37,21.87,24.97,6.18,31.08,1027.36,2057.99,1661.83,1930.36,2096.51,350.40,334.84,12.45,0000 0000 0000 0000 000000
2014-02-27 00:41:28,0.43,6.81,0.00,16.37,21.87,24.97,6.17,30.92,1027.35,2057.98,1661.34,1930.12,2096.18,349.34,334.26,12.46,0000 0000 0000 0000 000000
2014-02-27 00:42:28,0.38,6.81,0.00,16.37,21.87,24.95,6.14,31.13,1027.35,2057.98,1661.12,1930.00,2096.05,349.74,334.37,12.46,0000 0000 0000 0000 000000
2014-02-27 00:43:29,0.23,6.81,0.00,16.37,21.87,24.95,6.19,31.08,1027.35,2057.98,1660.88,1929.66,2095.67,350.15,335.03,12.47,0000 0000 0000 0000 000000
2014-02-27 00:44:29,0.37,6.81,0.00,16.37,21.87,24.98,6.33,31.21,1027.35,2057.98,1660.38,1929.27,2095.26,350.85,335.64,12.48,0000 0000 0000 0000 000000
2014-02-27 00:45:29,0.49,6.81,0.00,16.37,21.89,24.96,6.27,31.08,1027.30,2057.99,1660.13,1929.09,2095.07,349.85,334.73,12.48,0000 0000 0000 0000 000000
2014-02-27 00:46:30,0.24,6.82,0.00,16.37,21.89,24.97,6.25,31.04,1027.32,2057.99,1659.86,1928.89,2094.75,350.00,334.87,12.49,0000 0000 0000 0000 000000
2014-02-27 00:47:30,0.33,6.82,0.00,16.39,21.89,24.99,6.39,31.17,1027.30,2057.96,1659.34,1928.43,2094.31,350.46,335.11,12.49,0000 0000 0000 0000 000000
2014-02-27 00:48:30,0.53,6.82,0.00,16.39,21.89,24.97,6.13,31.17,1027.28,2057.97,1659.10,1928.15,2094.11,349.06,333.99,12.50,0000 0000 0000 0000 000000
2014-02-27 00:49:30,0.29,6.82,0.00,16.38,21.89,24.98,6.22,31.17,1027.31,2057.96,1658.79,1928.01,2093.89,350.34,335.19,12.50,0000 0000 0000 0000 000000
2014-02-27 00:50:31,0.27,6.82,0.00,16.38,21.89,24.95,6.28,31.13,1027.29,2057.96,1658.32,1927.69,2093.40,350.56,335.56,12.51,0000 0000 0000 0000 000000
2014-02-27 00:51:31,0.48,6.83,0.00,16.39,21.89,24.96,6.25,31.42,1027.18,2057.97,1658.07,1927.26,2093.15,350.55,335.18,12.52,0000 0000 0000 0000 000000
2014-02-27 00:52:31,0.44,6.83,0.00,16.39,21.89,24.98,6.35,31.08,1027.19,2057.97,1657.55,1927.09,2093.04,350.17,335.07,12.52,0000 0000 0000 0000 000000
2014-02-27 00:53:32,0.33,6.83,0.00,16.40,21.90,24.95,6.30,31.25,1027.23,2057.97,1657.20,1926.88,2092.66,350.30,335.09,12.53,0000 0000 0000 0000 000000
2014-02-27 00:54:32,0.35,6.83,0.00,16.41,21.90,24.96,6.32,31.21,1027.23,2057.99,1657.03,1926.39,2092.24,349.91,334.52,12.53,0000 0000 0000 0000 000000
2014-02-27 00:55:32,0.45,6.84,0.00,16.41,21.92,24.98,6.36,31.25,1027.18,2057.98,1656.60,1926.14,2092.08,350.30,335.07,12.54,0000 0000 0000 0000 000000
2014-02-27 00:56:33,0.33,6.84,0.00,16.42,21.92,24.97,6.20,31.17,1027.16,2057.98,1656.23,1926.03,2091.83,350.00,335.28,12.55,0000 0000 0000 0000 000000
2014-02-27 00:57:33,0.29,6.84,0.00,16.42,21.92,24.97,6.28,31.25,1027.14,2057.99,1656.07,1925.77,2091.34,350.10,334.64,12.55,0000 0000 0000 0000 000000
2014-02-27 00:58:33,0.35,6.84,0.00,16.42,21.92,24.96,6.23,31.25,1027.14,2057.98,1655.67,1925.30,2091.13,349.59,334.47,12.56,0000 0000 0000 0000 000000
2014-02-27 00:59:34,0.42,6.84,0.00,16.42,21.92,25.00,6.35,31.17,1027.15,2057.98,1655.24,1925.11,2090.94,349.91,334.68,12.56,0000 0000 0000 0000 000000
2014-02-27 01:00:34,0.36,6.85,0.00,16.43,21.92,25.03,6.25,31.13,1027.13,2057.98,1654.99,1924.87,2090.43,350.59,335.31,12.57,0000 0000 0000 0000 000000
2014-02-27 01:01:34,0.38,6.85,0.00,16.43,21.92,25.01,6.14,31.13,1027.06,2057.96,1654.44,1924.39,2090.15,350.38,335.13,12.57,0000 0000 0000 0000 000000
2014-02-27 01:02:34,0.51,6.85,0.00,16.42,21.92,25.01,6.34,31.21,1027.10,2057.96,1654.16,1924.14,2089.94,349.72,334.47,12.58,0000 0000 0000 0000 000000
2014-02-27 01:03:35,0.31,6.85,0.00,16.42,21.93,24.99,6.30,31.25,1027.14,2057.95,1653.92,1924.01,2089.43,350.01,334.77,12.59,0000 0000 0000 0000 000000
2014-02-27 01:04:35,0.33,6.86,0.00,16.42,21.94,24.96,6.26,31.29,1027.12,2057.96,1653.41,1923.52,2089.16,350.22,334.97,12.59,0000 0000 0000 0000 000000
2014-02-27 01:05:35,0.50,6.86,0.00,16.43,21.94,25.03,6.25,31.13,1027.19,2057.96,1653.14,1923.19,2088.99,350.38,335.25,12.60,0000 0000 0000 0000 000000
2014-02-27 01:06:35,0.35,6.86,0.00,16.44,21.94,25.03,6.41,31.42,1027.23,2057.95,1652.88,1923.06,2088.50,350.23,334.99,12.60,0000 0000 0000 0000 000000
2014-02-27 01:07:36,0.32,6.86,0.00,16.44,21.94,25.00,6.33,31.04,1027.16,2057.92,1652.38,1922.69,2088.18,350.41,335.13,12.61,0000 0000 0000 0000 000000
2014-02-27 01:08:36,0.42,6.87,0.00,16.44,21.94,25.00,6.24,31.21,1027.11,2057.94,1652.14,1922.30,2088.04,349.84,334.57,12.62,0000 0000 0000 0000 000000
2014-02-27 01:09:36,0.40,6.87,0.00,16.44,21.94,25.02,6.27,31.25,1027.07,2057.91,1651.89,1922.11,2087.56,351.08,335.41,12.62,0000 0000 0000 0000 000000
2014-02-27 01:10:36,0.25,6.87,0.00,16.45,21.94,24.96,6.38,31.29,1027.08,2057.74,1651.37,1921.96,2087.20,350.20,334.90,12.63,0000 0000 0000 0000 000000
2014-02-27 01:11:37,0.31,6.87,0.00,16.46,21.94,24.99,6.30,31.21,1027.01,2057.71,1651.13,1921.52,2087.04,350.08,334.75,12.63,0000 0000 0000 0000 000000
2014-02-27 01:12:37,0.30,6.87,0.00,16.48,21.95,25.05,6.25,31.08,1027.05,2057.77,1650.85,1921.20,2086.61,350.56,334.61,12.64,0000 0000 0000 0000 000000
2014-02-27 01:13:37,0.45,6.88,0.00,16.49,21.96,25.05,6.43,31.33,1027.10,2057.89,1650.35,1921.06,2086.23,350.70,335.13,12.65,0000 0000 0000 0000 000000
2014-02-27 01:14:38,0.47,6.88,0.00,16.49,21.97,25.06,6.39,31.46,1027.01,2057.90,1650.13,1920.77,2086.08,351.10,335.89,12.65,0000 0000 0000 0000 000000
2014-02-27 01:15:38,0.33,6.88,0.00,16.49,21.97,25.03,6.20,31.25,1027.00,2057.88,1649.86,1920.29,2085.88,350.11,334.87,12.66,0000 0000 0000 0000 000000
2014-02-27 01:16:38,0.35,6.88,0.00,16.49,21.97,24.98,6.39,31.25,1027.04,2057.69,1649.35,1920.10,2085.39,350.81,335.41,12.66,0000 0000 0000 0000 000000
2014-02-27 01:17:39,0.24,6.89,0.00,16.49,21.97,25.02,6.52,31.17,1027.08,2057.61,1649.12,1920.01,2085.14,350.73,335.67,12.67,0000 0000 0000 0000 000000
2014-02-27 01:18:39,0.11,6.89,0.00,16.51,21.97,25.01,6.46,31.42,1027.02,2057.48,1648.85,1919.66,2084.91,351.11,335.89,12.67,0000 0000 0000 0000 000000
2014-02-27 01:19:39,0.36,6.89,0.00,16.52,21.97,25.00,6.36,31.38,1026.96,2057.59,1648.37,1919.25,2084.42,349.83,334.35,12.68,0000 0000 0000 0000 000000
2014-02-27 01:20:39,0.50,6.89,0.00,16.52,21.97,24.99,6.33,31.33,1026.94,2057.56,1648.13,1919.08,2084.15,350.30,335.08,12.69,0000 0000 0000 0000 000000
2014-02-27 01:21:40,0.25,6.89,0.00,16.52,21.97,25.00,6.32,31.17,1026.93,2057.51,1648.01,1918.98,2083.99,350.34,334.90,12.69,0000 0000 0000 0000 000000
2014-02-27 01:22:40,0.18,6.89,0.00,16.52,21.98,24.99,6.17,31.17,1026.91,2057.41,1647.59,1918.54,2083.47,349.99,334.21,12.70,0000 0000 0000 0000 000000
2014-02-27 01:23:40,0.42,6.89,0.00,16.53,21.99,25.00,6.23,31.63,1026.91,2057.40,1647.23,1918.19,2083.17,350.01,334.57,12.70,0000 0000 0000 0000 000000
2014-02-27 01:24:40,0.33,6.90,0.00,16.54,21.99,25.03,6.30,31.42,1026.93,2057.30,1647.03,1918.06,2083.05,350.35,334.51,12.71,0000 0000 0000 0000 000000
2014-02-27 01:25:40,0.18,6.90,0.00,16.54,21.99,25.05,6.43,31.33,1026.93,2057.35,1646.51,1917.80,2082.61,350.40,334.93,12.72,0000 0000 0000 0000 000000
2014-02-27 01:26:41,0.48,6.90,0.00,16.54,21.99,25.02,6.38,31.38,1026.96,2057.32,1646.20,1917.33,2082.24,350.68,335.32,12.72,0000 0000 0000 0000 000000
2014-02-27 01:27:41,0.41,6.90,0.00,16.54,21.99,25.04,6.33,31.25,1026.95,2057.28,1645.99,1917.12,2082.08,350.23,334.57,12.73,0000 0000 0000 0000 000000
2014-02-27 01:28:41,0.20,6.91,0.00,16.54,21.99,25.07,6.27,31.38,1026.90,2057.22,1645.48,1917.02,2081.69,349.66,334.27,12.73,0000 0000 0000 0000 000000
2014-02-27 01:29:42,0.33,6.91,0.00,16.54,22.00,25.01,6.13,31.38,1026.89,2057.21,1645.17,1916.58,2081.28,349.58,334.36,12.74,0000 0000 0000 0000 000000
2014-02-27 01:30:42,0.41,6.91,0.00,16.54,22.00,25.07,6.22,31.25,1026.89,2057.14,1644.82,1916.20,2081.10,350.13,334.73,12.74,0000 0000 0000 0000 000000
2014-02-27 01:31:42,0.35,6.91,0.00,16.54,22.01,25.05,6.17,31.71,1026.88,2057.07,1644.32,1916.05,2080.84,349.59,334.14,12.75,0000 0000 0000 0000 000000
2014-02-27 01:32:43,0.31,6.91,0.00,16.56,22.02,25.02,6.43,31.29,1026.91,2057.03,1644.11,1915.75,2080.33,350.65,334.87,12.76,0000 0000 0000 0000 000000
2014-02-27 01:33:43,0.33,6.92,0.00,16.57,22.02,25.06,6.19,31.13,1026.90,2057.07,1643.91,1915.33,2080.11,350.01,334.69,12.76,0000 0000 0000 0000 000000
2014-02-27 01:34:43,0.39,6.92,0.00,16.57,22.02,25.03,6.34,31.00,1026.89,2057.10,1643.40,1915.12,2079.98,351.19,335.68,12.77,0000 0000 0000 0000 000000
2014-02-27 01:35:44,0.39,6.92,0.00,16.57,22.02,25.09,6.37,31.29,1026.90,2057.06,1643.14,1914.99,2079.47,349.61,334.40,12.77,0000 0000 0000 0000 000000
2014-02-27 01:36:44,0.33,6.92,0.00,16.59,22.02,25.06,6.48,31.33,1026.90,2057.07,1642.98,1914.48,2079.17,350.35,334.97,12.78,0000 0000 0000 0000 000000
2014-02-27 01:37:44,0.39,6.92,0.00,16.59,22.02,25.10,6.08,31.13,1026.90,2057.06,1642.43,1914.17,2078.99,349.78,334.64,12.79,0000 0000 0000 0000 000000
2014-02-27 01:38:44,0.41,6.93,0.00,16.59,22.02,25.06,6.21,31.29,1026.93,2057.08,1642.15,1914.05,2078.52,349.56,334.07,12.79,0000 0000 0000 0000 000000
2014-02-27 01:39:45,0.32,6.93,0.00,16.59,22.03,25.06,6.15,31.08,1026.92,2057.06,1641.99,1913.85,2078.19,349.78,334.28,12.80,0000 0000 0000 0000 000000
2014-02-27 01:40:45,0.30,6.93,0.00,16.59,22.04,25.09,6.40,31.21,1026.96,2057.05,1641.53,1913.41,2078.03,350.48,334.95,12.80,0000 0000 0000 0000 000000
2014-02-27 01:41:45,0.39,6.93,0.00,16.61,22.04,25.07,6.21,31.04,1026.97,2057.03,1641.20,1913.15,2077.66,349.79,334.28,12.81,0000 0000 0000 0000 000000
2014-02-27 01:42:45,0.36,6.93,0.00,16.62,22.04,25.10,6.43,31.46,1027.01,2057.04,1641.05,1913.03,2077.24,350.79,335.24,12.81,0000 0000 0000 0000 000000
2014-02-27 01:43:46,0.27,6.94,0.00,16.62,22.04,25.10,6.30,31.13,1026.99,2057.04,1640.63,1912.71,2077.08,350.62,335.08,12.82,0000 0000 0000 0000 000000
2014-02-27 01:44:46,0.39,6.94,0.00,16.62,22.04,25.12,6.52,31.25,1026.94,2057.05,1640.23,1912.30,2076.94,350.78,335.21,12.83,0000 0000 0000 0000 000000
2014-02-27 01:45:46,0.43,6.94,0.00,16.62,22.04,25.07,6.07,31.13,1026.93,2057.04,1640.02,1912.11,2076.47,349.76,334.23,12.83,0000 0000 0000 0000 000000
2014-02-27 01:46:46,0.31,6.94,0.00,16.62,22.05,25.10,6.40,31.29,1026.92,2057.03,1639.49,1912.02,2076.18,350.65,335.22,12.84,0000 0000 0000 0000 000000
2014-02-27 01:47:47,0.33,6.95,0.00,16.62,22.06,25.09,6.18,31.21,1026.95,2057.03,1639.17,1911.60,2076.04,349.66,334.25,12.84,0000 0000 0000 0000 000000
2014-02-27 01:48:47,0.38,6.95,0.00,16.64,22.07,25.09,6.29,31.08,1026.98,2057.02,1639.01,1911.21,2075.56,350.36,334.81,12.85,0000 0000 0000 0000 000000
2014-02-27 01:49:47,0.39,6.95,0.00,16.65,22.07,25.13,6.37,31.25,1026.98,2057.03,1638.57,1911.07,2075.20,350.65,335.05,12.86,0000 0000 0000 0000 000000
2014-02-27 01:50:48,0.37,6.95,0.00,16.66,22.07,25.09,6.08,31.17,1026.94,2057.02,1638.20,1910.79,2075.05,349.29,334.13,12.86,0000 0000 0000 0000 000000
2014-02-27 01:51:48,0.36,6.95,0.00,16.66,22.07,25.05,6.29,31.17,1026.97,2057.00,1638.05,1910.34,2074.71,350.05,334.08,12.87,0000 0000 0000 0000 000000
2014-02-27 01:52:48,0.38,6.96,0.00,16.65,22.07,25.05,6.07,31.08,1027.01,2057.01,1637.66,1910.13,2074.28,350.06,334.61,12.87,0000 0000 0000 0000 000000
2014-02-27 01:53:48,0.39,6.96,0.00,16.67,22.08,25.06,6.28,31.17,1026.96,2057.01,1637.25,1909.97,2074.09,349.92,334.66,12.88,0000 0000 0000 0000 000000
2014-02-27 01:54:48,0.30,6.96,0.00,16.68,22.08,25.07,6.26,31.17,1026.94,2057.00,1637.08,1909.50,2073.72,350.30,334.76,12.89,0000 0000 0000 0000 000000
2014-02-27 01:55:49,0.39,6.96,0.00,16.69,22.09,25.05,6.26,31.13,1027.00,2057.00,1636.72,1909.18,2073.30,349.39,333.82,12.89,0000 0000 0000 0000 000000
2014-02-27 01:56:49,0.45,6.97,0.00,16.69,22.09,25.08,5.93,31.00,1026.98,2057.00,1636.27,1909.06,2073.11,349.13,333.57,12.90,0000 0000 0000 0000 000000
2014-02-27 01:57:49,0.28,6.97,0.00,16.70,22.09,25.10,6.22,31.17,1026.97,2057.00,1636.06,1908.85,2072.89,350.24,334.41,12.90,0000 0000 0000 0000 000000
2014-02-27 01:58:49,0.34,6.97,0.00,16.70,22.09,25.06,6.23,31.08,1027.00,2057.00,1635.63,1908.36,2072.36,350.16,334.54,12.91,0000 0000 0000 0000 000000
2014-02-27 01:59:50,0.51,6.97,0.00,16.70,22.10,25.10,6.31,31.21,1026.98,2057.00,1635.23,1908.13,2072.13,350.56,334.91,12.91,0000 0000 0000 0000 000000
2014-02-27 02:00:50,0.34,6.97,0.00,16.70,22.10,25.07,6.18,31.17,1026.98,2057.00,1635.03,1908.00,2071.97,349.70,334.10,12.92,0000 0000 0000 0000 000000
2014-02-27 02:01:50,0.29,6.98,0.00,16.72,22.11,25.07,6.18,31.25,1026.98,2057.00,1634.52,1907.55,2071.54,350.27,334.63,12.93,0000 0000 0000 0000 000000
2014-02-27 02:02:50,0.51,6.98,0.00,16.72,22.12,25.09,6.27,31.08,1027.03,2057.00,1634.19,1907.21,2071.21,350.57,334.92,12.93,0000 0000 0000 0000 000000
2014-02-27 02:03:51,0.39,6.98,0.00,16.72,22.12,25.08,6.30,31.75,1026.97,2057.00,1633.84,1907.06,2071.05,349.58,333.95,12.94,0000 0000 0000 0000 000000
2014-02-27 02:04:51,0.33,6.98,0.00,16.72,22.12,25.08,6.25,31.83,1027.02,2057.00,1633.34,1906.76,2070.65,350.28,334.63,12.94,0000 0000 0000 0000 000000
2014-02-27 02:05:51,0.47,6.99,0.00,16.74,22.12,25.06,6.23,31.79,1027.02,2057.00,1633.12,1906.32,2070.26,348.94,333.50,12.95,0000 0000 0000 0000 000000
2014-02-27 02:06:51,0.39,6.99,0.00,16.74,22.12,25.08,6.42,31.67,1027.00,2057.00,1632.82,1906.11,2070.09,350.80,335.11,12.96,0000 0000 0000 0000 000000
2014-02-27 02:07:52,0.32,6.99,0.00,16.74,22.13,25.11,6.19,31.50,1027.06,2057.00,1632.33,1905.92,2069.76,348.24,332.68,12.96,0000 0000 0000 0000 000000
2014-02-27 02:08:52,0.44,6.99,0.00,16.74,22.14,25.09,6.19,31.67,1027.00,2057.00,1632.12,1905.40,2069.29,350.11,334.29,12.97,0000 0000 0000 0000 000000
2014-02-27 02:09:52,0.41,7.00,0.00,16.74,22.14,25.11,6.34,31.71,1026.99,2057.00,1631.88,1905.15,2069.09,350.32,334.65,12.97,0000 0000 0000 0000 000000
2014-02-27 02:10:52,0.35,7.00,0.00,16.75,22.14,25.10,6.17,31.54,1026.95,2057.00,1631.35,1905.04,2068.77,350.08,334.38,12.98,0000 0000 0000 0000 000000
2014-02-27 02:11:52,0.37,7.00,0.00,16.77,22.14,25.09,6.47,31.58,1026.94,2057.00,1631.12,1904.69,2068.31,350.84,334.92,12.98,0000 0000 0000 0000 000000
2014-02-27 02:12:53,0.40,7.00,0.00,16.78,22.14,25.11,6.38,31.54,1026.96,2057.00,1630.74,1904.26,2068.11,351.10,335.59,12.99,0000 0000 0000 0000 000000
2014-02-27 02:13:53,0.42,7.00,0.00,16.79,22.15,25.09,6.27,31.50,1026.96,2057.00,1630.29,1904.09,2067.94,350.53,334.27,13.00,0000 0000 0000 0000 000000
2014-02-27 02:14:53,0.33,7.01,0.00,16.79,22.15,25.09,6.07,31.08,1026.94,2057.00,1630.10,1903.94,2067.45,349.22,333.70,13.00,0000 0000 0000 0000 000000
2014-02-27 02:15:54,0.31,7.01,0.00,16.79,22.17,25.11,6.29,31.21,1026.92,2056.98,1629.78,1903.52,2067.16,350.89,335.11,13.01,0000 0000 0000 0000 000000
2014-02-27 02:16:54,0.43,7.01,0.00,16.79,22.17,25.12,6.45,31.29,1027.00,2056.98,1629.30,1903.20,2067.03,350.10,334.37,13.01,0000 0000 0000 0000 000000
2014-02-27 02:17:54,0.37,7.01,0.00,16.80,22.17,25.09,6.21,31.21,1026.99,2056.99,1629.11,1903.06,2066.55,350.28,334.70,13.02,0000 0000 0000 0000 000000
2014-02-27 02:18:54,0.29,7.01,0.00,16.82,22.17,25.08,6.34,31.38,1027.00,2056.99,1628.96,1902.77,2066.20,350.53,334.76,13.03,0000 0000 0000 0000 000000
2014-02-27 02:19:55,0.35,7.02,0.00,16.82,22.18,25.12,6.12,31.83,1027.01,2056.96,1628.48,1902.31,2066.03,349.06,333.36,13.03,0000 0000 0000 0000 000000
2014-02-27 02:20:55,0.43,7.02,0.00,16.82,22.19,25.16,6.16,31.67,1027.00,2056.96,1628.17,1902.11,2065.61,348.92,333.69,13.04,0000 0000 0000 0000 000000
2014-02-27 02:21:55,0.34,7.02,0.00,16.84,22.19,25.18,6.18,31.71,1026.95,2056.97,1627.83,1901.92,2065.23,349.91,334.12,13.04,0000 0000 0000 0000 000000
2014-02-27 02:22:56,0.44,7.02,0.00,16.84,22.19,25.12,6.28,31.13,1026.95,2056.97,1627.33,1901.40,2065.08,350.89,335.06,13.05,0000 0000 0000 0000 000000
2014-02-27 02:23:56,0.46,7.03,0.00,16.84,22.19,25.14,6.24,31.38,1026.98,2056.97,1627.12,1901.14,2064.69,349.85,334.07,13.06,0000 0000 0000 0000 000000
2014-02-27 02:24:56,0.34,7.03,0.00,16.85,22.19,25.15,6.20,31.29,1026.96,2056.96,1626.72,1901.00,2064.27,350.04,334.34,13.06,0000 0000 0000 0000 000000
2014-02-27 02:25:56,0.38,7.03,0.00,16.86,22.20,25.14,6.23,31.08,1027.02,2056.98,1626.27,1900.63,2064.08,349.88,334.09,13.07,0000 0000 0000 0000 000000
2014-02-27 02:26:56,0.45,7.03,0.00,16.87,22.22,25.15,6.26,31.04,1027.02,2056.98,1626.09,1900.24,2063.72,349.68,333.89,13.07,0000 0000 0000 0000 000000
2014-02-27 02:27:57,0.38,7.04,0.00,16.87,22.22,25.16,6.05,31.08,1027.07,2056.96,1625.83,1900.08,2063.28,349.37,333.83,13.08,0000 0000 0000 0000 000000
2014-02-27 02:28:57,0.30,7.04,0.00,16.87,22.22,25.12,6.22,31.38,1027.05,2056.92,1625.34,1899.90,2063.09,350.46,334.65,13.08,0000 0000 0000 0000 000000
2014-02-27 02:29:57,0.36,7.04,0.00,16.87,22.22,25.11,6.32,31.29,1027.10,2056.92,1625.12,1899.40,2062.82,350.26,334.61,13.09,0000 0000 0000 0000 000000
2014-02-27 02:30:58,0.38,7.04,0.00,16.88,22.22,25.12,6.29,31.25,1027.15,2056.89,1624.90,1899.15,2062.34,350.63,335.25,13.10,0000 0000 0000 0000 000000
2014-02-27 02:31:58,0.36,7.04,0.00,16.89,22.23,25.15,6.09,31.04,1027.19,2056.90,1624.41,1899.02,2062.12,349.80,334.04,13.10,0000 0000 0000 0000 000000
2014-02-27 02:32:58,0.31,7.05,0.00,16.89,22.24,25.14,6.17,31.04,1027.15,2056.89,1624.15,1898.70,2061.98,350.23,334.30,13.11,0000 0000 0000 0000 000000
2014-02-27 02:33:58,0.31,7.05,0.00,16.91,22.24,25.16,6.17,31.08,1027.07,2056.86,1623.97,1898.31,2061.52,349.91,334.05,13.11,0000 0000 0000 0000 000000
2014-02-27 02:34:59,0.41,7.05,0.00,16.92,22.24,25.13,6.12,30.96,1027.05,2056.83,1623.48,1898.12,2061.19,349.67,333.88,13.12,0000 0000 0000 0000 000000
2014-02-27 02:35:59,0.34,7.05,0.00,16.92,22.25,25.15,6.23,30.96,1027.11,2056.83,1623.18,1897.99,2061.04,349.43,334.15,13.13,0000 0000 0000 0000 000000